| time (UTC) | temp F | wind direction | speed MPH | gust MPH | rain 1hr in | rain 24hr in | rain mn in | humidity % | barometer mb |
| 20260504151010 | 64 | 197 | 5.0 | 14.0 | 0.00 | 0.00 | 0.00 | 53 | 1003.6 |
| 20260504150506 | 64 | 210 | 8.0 | 14.0 | 0.00 | 0.00 | 0.00 | 53 | 1003.6 |
| 20260504141010 | 60 | 211 | 9.0 | 14.0 | 0.00 | 0.00 | 0.00 | 56 | 1003.9 |
| 20260504140510 | 60 | 207 | 7.0 | 14.0 | 0.00 | 0.00 | 0.00 | 57 | 1003.9 |
| 20260504130513 | 57 | 258 | 5.0 | 13.0 | 0.00 | 0.00 | 0.00 | 61 | 1004.6 |
| 20260504110506 | 49 | 252 | 3.0 | 10.0 | 0.00 | 0.00 | 0.00 | 70 | 1004.6 |
| 20260504100511 | 49 | 222 | 5.0 | 10.0 | 0.00 | 0.00 | 0.00 | 68 | 1004.4 |
| 20260504081535 | 50 | 227 | 3.0 | 9.0 | 0.00 | 0.00 | 0.00 | 65 | 1005.0 |
| 20260504081008 | 50 | 248 | 4.0 | 9.0 | 0.00 | 0.00 | 0.00 | 65 | 1005.0 |
| 20260504080511 | 50 | 209 | 5.0 | 9.0 | 0.00 | 0.00 | 0.00 | 65 | 1005.1 |
| 20260504050510 | 53 | 219 | 6.0 | 11.0 | 0.00 | 0.00 | 0.00 | 57 | 1007.3 |
| 20260504050003 | 53 | 186 | 5.0 | 11.0 | 0.00 | 0.00 | 0.00 | 57 | 1007.4 |
| 20260504045503 | 53 | 246 | 5.0 | 11.0 | 0.00 | 0.00 | 0.00 | 57 | 1007.4 |
| 20260504045003 | 53 | 186 | 4.0 | 15.0 | 0.00 | 0.00 | 0.00 | 57 | 1007.5 |
| 20260504044515 | 53 | 236 | 6.0 | 15.0 | 0.00 | 0.00 | 0.00 | 57 | 1007.5 |
| 20260504044006 | 53 | 257 | 5.0 | 13.0 | 0.00 | 0.00 | 0.00 | 57 | 1007.5 |
| 20260504043507 | 53 | 200 | 8.0 | 13.0 | 0.00 | 0.00 | 0.00 | 56 | 1007.5 |
| 20260504043024 | 53 | 203 | 4.0 | 13.0 | 0.00 | 0.00 | 0.00 | 57 | 1007.6 |
| 20260504042509 | 53 | 197 | 7.0 | 15.0 | 0.00 | 0.00 | 0.00 | 57 | 1007.7 |
| 20260504042004 | 53 | 223 | 6.0 | 14.0 | 0.00 | 0.00 | 0.00 | 56 | 1007.6 |
| 20260504041508 | 53 | 230 | 6.0 | 13.0 | 0.00 | 0.00 | 0.00 | 56 | 1007.8 |
| 20260504041005 | 53 | 202 | 4.0 | 13.0 | 0.00 | 0.00 | 0.00 | 56 | 1007.8 |
| 20260504040507 | 53 | 202 | 7.0 | 14.0 | 0.00 | 0.00 | 0.00 | 56 | 1007.8 |
| 20260504040018 | 53 | 160 | 8.0 | 15.0 | 0.00 | 0.00 | 0.00 | 56 | 1007.9 |
| 20260504035513 | 53 | 198 | 4.0 | 15.0 | 0.00 | 0.00 | 0.00 | 56 | 1007.9 |
| 20260504035011 | 53 | 209 | 6.0 | 16.0 | 0.00 | 0.00 | 0.00 | 56 | 1007.9 |
| 20260504034533 | 54 | 232 | 6.0 | 16.0 | 0.00 | 0.00 | 0.00 | 55 | 1008.0 |
| 20260504034002 | 54 | 190 | 8.0 | 13.0 | 0.00 | 0.00 | 0.00 | 55 | 1008.1 |
| 20260504033502 | 54 | 200 | 6.0 | 16.0 | 0.00 | 0.00 | 0.00 | 55 | 1008.1 |
| 20260504033021 | 54 | 188 | 6.0 | 17.0 | 0.00 | 0.00 | 0.00 | 55 | 1008.1 |
| 20260504032505 | 54 | 240 | 7.0 | 17.0 | 0.00 | 0.00 | 0.00 | 55 | 1008.2 |
| 20260504032010 | 54 | 203 | 5.0 | 17.0 | 0.00 | 0.00 | 0.00 | 55 | 1008.2 |
| 20260504031528 | 54 | 208 | 5.0 | 15.0 | 0.00 | 0.00 | 0.00 | 55 | 1008.2 |
| 20260504031008 | 54 | 163 | 7.0 | 15.0 | 0.00 | 0.00 | 0.00 | 55 | 1008.2 |
| 20260504030512 | 54 | 217 | 6.0 | 15.0 | 0.00 | 0.00 | 0.00 | 55 | 1008.3 |
| 20260504030007 | 54 | 242 | 7.0 | 14.0 | 0.00 | 0.00 | 0.00 | 55 | 1008.3 |
| 20260504025503 | 54 | 219 | 8.0 | 14.0 | 0.00 | 0.00 | 0.00 | 55 | 1008.3 |
| 20260504025004 | 54 | 219 | 9.0 | 14.0 | 0.00 | 0.00 | 0.00 | 55 | 1008.4 |
| 20260504024535 | 54 | 186 | 7.0 | 13.0 | 0.00 | 0.00 | 0.00 | 55 | 1008.5 |
| 20260504024009 | 54 | 239 | 7.0 | 16.0 | 0.00 | 0.00 | 0.00 | 55 | 1008.5 |
| 20260504023507 | 54 | 219 | 8.0 | 16.0 | 0.00 | 0.00 | 0.00 | 55 | 1008.7 |
| 20260504023024 | 54 | 218 | 6.0 | 17.0 | 0.00 | 0.00 | 0.00 | 55 | 1008.5 |
| 20260504022510 | 54 | 195 | 6.0 | 17.0 | 0.00 | 0.00 | 0.00 | 55 | 1008.7 |
| 20260504022007 | 54 | 163 | 6.0 | 12.0 | 0.00 | 0.00 | 0.00 | 55 | 1008.7 |
| 20260504021510 | 55 | 223 | 5.0 | 14.0 | 0.00 | 0.00 | 0.00 | 54 | 1008.7 |
| 20260504021005 | 55 | 200 | 8.0 | 14.0 | 0.00 | 0.00 | 0.00 | 54 | 1008.6 |
| 20260504020509 | 55 | 246 | 5.0 | 14.0 | 0.00 | 0.00 | 0.00 | 53 | 1008.6 |
| 20260504020022 | 55 | 225 | 6.0 | 13.0 | 0.00 | 0.00 | 0.00 | 53 | 1008.5 |
| 20260504015509 | 55 | 211 | 5.0 | 17.0 | 0.00 | 0.00 | 0.00 | 53 | 1008.5 |
| 20260504015009 | 55 | 192 | 9.0 | 17.0 | 0.00 | 0.00 | 0.00 | 53 | 1008.6 |
| 20260504014526 | 55 | 205 | 5.0 | 11.0 | 0.00 | 0.00 | 0.00 | 53 | 1008.5 |
| 20260504014005 | 56 | 246 | 4.0 | 15.0 | 0.00 | 0.00 | 0.00 | 53 | 1008.4 |
| 20260504013506 | 56 | 271 | 8.0 | 15.0 | 0.00 | 0.00 | 0.00 | 52 | 1008.6 |
| 20260504013016 | 56 | 236 | 7.0 | 15.0 | 0.00 | 0.00 | 0.00 | 52 | 1008.5 |
| 20260504012507 | 56 | 227 | 9.0 | 18.0 | 0.00 | 0.00 | 0.00 | 51 | 1008.5 |
| 20260504012008 | 57 | 219 | 8.0 | 18.0 | 0.00 | 0.00 | 0.00 | 50 | 1008.5 |
| 20260504011525 | 57 | 212 | 9.0 | 20.0 | 0.00 | 0.00 | 0.00 | 50 | 1008.6 |
| 20260504011008 | 57 | 254 | 13.0 | 23.0 | 0.00 | 0.00 | 0.00 | 49 | 1008.5 |
| 20260504010515 | 57 | 227 | 13.0 | 23.0 | 0.00 | 0.00 | 0.00 | 48 | 1008.5 |
| 20260504010011 | 57 | 192 | 15.0 | 23.0 | 0.00 | 0.00 | 0.00 | 48 | 1008.5 |
| 20260504005506 | 58 | 252 | 12.0 | 20.0 | 0.00 | 0.00 | 0.00 | 48 | 1008.5 |
| 20260504005008 | 58 | 252 | 15.0 | 21.0 | 0.00 | 0.00 | 0.00 | 48 | 1008.5 |
| 20260504004534 | 59 | 264 | 8.0 | 22.0 | 0.00 | 0.00 | 0.00 | 47 | 1008.4 |
| 20260504004009 | 59 | 275 | 12.0 | 22.0 | 0.00 | 0.00 | 0.00 | 47 | 1008.3 |
| 20260504003513 | 59 | 251 | 8.0 | 18.0 | 0.00 | 0.00 | 0.00 | 45 | 1008.1 |
| 20260504003027 | 59 | 244 | 6.0 | 18.0 | 0.00 | 0.00 | 0.00 | 45 | 1008.0 |
| 20260504002511 | 60 | 247 | 7.0 | 18.0 | 0.00 | 0.00 | 0.00 | 44 | 1008.0 |
| 20260504002005 | 60 | 261 | 11.0 | 18.0 | 0.00 | 0.00 | 0.00 | 43 | 1007.9 |
| 20260504001514 | 60 | 243 | 6.0 | 19.0 | 0.00 | 0.00 | 0.00 | 43 | 1007.8 |
| 20260504001010 | 60 | 223 | 7.0 | 19.0 | 0.00 | 0.00 | 0.00 | 42 | 1007.8 |
| 20260504000505 | 60 | 266 | 7.0 | 19.0 | 0.00 | 0.00 | 0.00 | 42 | 1007.8 |
| 20260504000024 | 60 | 213 | 10.0 | 19.0 | 0.00 | 0.00 | 0.00 | 41 | 1007.8 |
| 20260503235509 | 60 | 254 | 8.0 | 18.0 | 0.00 | 0.00 | 0.00 | 41 | 1007.7 |
| 20260503235010 | 61 | 234 | 9.0 | 20.0 | 0.00 | 0.00 | 0.00 | 40 | 1007.7 |
| 20260503234529 | 61 | 248 | 12.0 | 20.0 | 0.00 | 0.00 | 0.00 | 40 | 1007.6 |
| 20260503234005 | 61 | 194 | 11.0 | 22.0 | 0.00 | 0.00 | 0.00 | 40 | 1007.9 |
| 20260503233505 | 61 | 243 | 11.0 | 22.0 | 0.00 | 0.00 | 0.00 | 39 | 1007.7 |
| 20260503233017 | 61 | 225 | 6.0 | 22.0 | 0.00 | 0.00 | 0.00 | 39 | 1007.7 |
| 20260503232505 | 61 | 234 | 8.0 | 22.0 | 0.00 | 0.00 | 0.00 | 39 | 1007.7 |
| 20260503232008 | 62 | 236 | 14.0 | 23.0 | 0.00 | 0.00 | 0.00 | 38 | 1007.8 |
| 20260503231526 | 62 | 256 | 9.0 | 23.0 | 0.00 | 0.00 | 0.00 | 38 | 1007.8 |
| 20260503231012 | 62 | 248 | 15.0 | 22.0 | 0.00 | 0.00 | 0.00 | 37 | 1007.7 |
| 20260503230511 | 62 | 233 | 13.0 | 23.0 | 0.00 | 0.00 | 0.00 | 38 | 1007.8 |
| 20260503230009 | 62 | 233 | 10.0 | 23.0 | 0.00 | 0.00 | 0.00 | 37 | 1007.8 |
| 20260503225505 | 62 | 223 | 7.0 | 22.0 | 0.00 | 0.00 | 0.00 | 37 | 1007.8 |
| 20260503225008 | 63 | 236 | 12.0 | 22.0 | 0.00 | 0.00 | 0.00 | 37 | 1007.9 |
| 20260503224521 | 63 | 16 | 7.0 | 15.0 | 0.00 | 0.00 | 0.00 | 37 | 1007.9 |
| 20260503224009 | 62 | 248 | 7.0 | 19.0 | 0.00 | 0.00 | 0.00 | 37 | 1008.0 |
| 20260503223510 | 62 | 246 | 13.0 | 18.0 | 0.00 | 0.00 | 0.00 | 37 | 1008.1 |
| 20260503223026 | 62 | 252 | 11.0 | 19.0 | 0.00 | 0.00 | 0.00 | 39 | 1008.1 |
| 20260503222509 | 62 | 221 | 7.0 | 25.0 | 0.00 | 0.00 | 0.00 | 38 | 1008.3 |
| 20260503222005 | 62 | 263 | 10.0 | 25.0 | 0.00 | 0.00 | 0.00 | 37 | 1008.3 |
| 20260503221513 | 63 | 240 | 8.0 | 18.0 | 0.00 | 0.00 | 0.00 | 37 | 1008.3 |
| 20260503221009 | 62 | 259 | 8.0 | 18.0 | 0.00 | 0.00 | 0.00 | 38 | 1008.3 |
| 20260503220508 | 62 | 260 | 11.0 | 22.0 | 0.00 | 0.00 | 0.00 | 37 | 1008.3 |
| 20260503220022 | 62 | 223 | 10.0 | 22.0 | 0.00 | 0.00 | 0.00 | 37 | 1008.3 |
| 20260503215512 | 62 | 267 | 9.0 | 17.0 | 0.00 | 0.00 | 0.00 | 38 | 1008.3 |
| 20260503215013 | 62 | 215 | 7.0 | 19.0 | 0.00 | 0.00 | 0.00 | 38 | 1008.3 |
| 20260503214527 | 62 | 233 | 9.0 | 25.0 | 0.00 | 0.00 | 0.00 | 37 | 1008.3 |
| 20260503214005 | 62 | 213 | 12.0 | 25.0 | 0.00 | 0.00 | 0.00 | 37 | 1008.2 |
| 20260503213509 | 62 | 265 | 12.0 | 23.0 | 0.00 | 0.00 | 0.00 | 36 | 1008.4 |
| 20260503213019 | 63 | 240 | 12.0 | 23.0 | 0.00 | 0.00 | 0.00 | 36 | 1008.3 |
| 20260503212509 | 63 | 238 | 13.0 | 20.0 | 0.00 | 0.00 | 0.00 | 36 | 1008.2 |
| 20260503212013 | 63 | 288 | 9.0 | 19.0 | 0.00 | 0.00 | 0.00 | 35 | 1008.2 |
| 20260503211536 | 63 | 257 | 11.0 | 20.0 | 0.00 | 0.00 | 0.00 | 36 | 1008.3 |
| 20260503211010 | 63 | 259 | 10.0 | 20.0 | 0.00 | 0.00 | 0.00 | 36 | 1008.3 |
| 20260503210509 | 63 | 249 | 7.0 | 18.0 | 0.00 | 0.00 | 0.00 | 37 | 1008.2 |
| 20260503210031 | 63 | 230 | 9.0 | 22.0 | 0.00 | 0.00 | 0.00 | 36 | 1008.3 |
| 20260503205509 | 63 | 259 | 11.0 | 22.0 | 0.00 | 0.00 | 0.00 | 35 | 1008.3 |
| 20260503205010 | 63 | 223 | 9.0 | 21.0 | 0.00 | 0.00 | 0.00 | 36 | 1008.3 |
| 20260503204520 | 63 | 248 | 8.0 | 21.0 | 0.00 | 0.00 | 0.00 | 36 | 1008.4 |
| 20260503204010 | 63 | 223 | 13.0 | 21.0 | 0.00 | 0.00 | 0.00 | 36 | 1008.3 |
| 20260503203510 | 63 | 184 | 11.0 | 24.0 | 0.00 | 0.00 | 0.00 | 35 | 1008.4 |
| 20260503203028 | 63 | 238 | 13.0 | 24.0 | 0.00 | 0.00 | 0.00 | 35 | 1008.5 |
| 20260503202511 | 64 | 283 | 12.0 | 21.0 | 0.00 | 0.00 | 0.00 | 33 | 1008.4 |
| 20260503202014 | 64 | 272 | 11.0 | 21.0 | 0.00 | 0.00 | 0.00 | 33 | 1008.5 |
| 20260503201516 | 65 | 231 | 12.0 | 21.0 | 0.00 | 0.00 | 0.00 | 32 | 1008.5 |
| 20260503201009 | 66 | 260 | 10.0 | 23.0 | 0.00 | 0.00 | 0.00 | 33 | 1008.5 |
| 20260503200513 | 66 | 283 | 9.0 | 23.0 | 0.00 | 0.00 | 0.00 | 33 | 1008.5 |
| 20260503200024 | 66 | 234 | 13.0 | 23.0 | 0.00 | 0.00 | 0.00 | 32 | 1008.6 |
| 20260503195512 | 66 | 274 | 12.0 | 20.0 | 0.00 | 0.00 | 0.00 | 32 | 1008.7 |
| 20260503195005 | 65 | 261 | 11.0 | 23.0 | 0.00 | 0.00 | 0.00 | 33 | 1008.8 |
| 20260503194508 | 65 | 250 | 13.0 | 23.0 | 0.00 | 0.00 | 0.00 | 32 | 1008.9 |
| 20260503194007 | 65 | 254 | 8.0 | 21.0 | 0.00 | 0.00 | 0.00 | 34 | 1008.9 |
| 20260503193510 | 65 | 250 | 12.0 | 22.0 | 0.00 | 0.00 | 0.00 | 32 | 1008.9 |
| 20260503193034 | 65 | 269 | 9.0 | 22.0 | 0.00 | 0.00 | 0.00 | 34 | 1009.0 |
| 20260503192509 | 65 | 201 | 11.0 | 22.0 | 0.00 | 0.00 | 0.00 | 31 | 1009.1 |
| 20260503192010 | 65 | 245 | 14.0 | 29.0 | 0.00 | 0.00 | 0.00 | 34 | 1009.1 |
| 20260503191526 | 65 | 253 | 16.0 | 29.0 | 0.00 | 0.00 | 0.00 | 33 | 1009.2 |
| 20260503191003 | 64 | 237 | 13.0 | 28.0 | 0.00 | 0.00 | 0.00 | 33 | 1009.4 |
| 20260503190506 | 64 | 171 | 14.0 | 27.0 | 0.00 | 0.00 | 0.00 | 32 | 1009.3 |
| 20260503190024 | 64 | 247 | 16.0 | 27.0 | 0.00 | 0.00 | 0.00 | 33 | 1009.4 |
| 20260503185507 | 65 | 281 | 12.0 | 26.0 | 0.00 | 0.00 | 0.00 | 32 | 1009.5 |
| 20260503185009 | 64 | 252 | 11.0 | 26.0 | 0.00 | 0.00 | 0.00 | 34 | 1009.7 |
| 20260503184523 | 63 | 183 | 10.0 | 23.0 | 0.00 | 0.00 | 0.00 | 34 | 1009.6 |
| 20260503184010 | 63 | 291 | 11.0 | 23.0 | 0.00 | 0.00 | 0.00 | 33 | 1009.7 |
| 20260503183515 | 63 | 248 | 13.0 | 22.0 | 0.00 | 0.00 | 0.00 | 34 | 1009.7 |
| 20260503183007 | 62 | 245 | 14.0 | 22.0 | 0.00 | 0.00 | 0.00 | 34 | 1009.8 |
| 20260503182505 | 63 | 269 | 9.0 | 17.0 | 0.00 | 0.00 | 0.00 | 35 | 1009.9 |
| 20260503182014 | 62 | 262 | 8.0 | 20.0 | 0.00 | 0.00 | 0.00 | 36 | 1009.9 |
| 20260503181517 | 62 | 209 | 10.0 | 21.0 | 0.00 | 0.00 | 0.00 | 36 | 1010.0 |
| 20260503181014 | 61 | 265 | 13.0 | 20.0 | 0.00 | 0.00 | 0.00 | 35 | 1010.1 |
| 20260503180513 | 61 | 258 | 11.0 | 17.0 | 0.00 | 0.00 | 0.00 | 35 | 1010.1 |
| 20260503180026 | 61 | 220 | 11.0 | 19.0 | 0.00 | 0.00 | 0.00 | 35 | 1010.3 |
| 20260503175509 | 61 | 265 | 11.0 | 23.0 | 0.00 | 0.00 | 0.00 | 35 | 1010.4 |
| 20260503175005 | 62 | 267 | 12.0 | 23.0 | 0.00 | 0.00 | 0.00 | 35 | 1010.5 |
| 20260503174511 | 62 | 243 | 11.0 | 21.0 | 0.00 | 0.00 | 0.00 | 35 | 1010.4 |
| 20260503174006 | 62 | 313 | 8.0 | 22.0 | 0.00 | 0.00 | 0.00 | 36 | 1010.7 |
| 20260503173508 | 62 | 238 | 13.0 | 22.0 | 0.00 | 0.00 | 0.00 | 34 | 1010.7 |
| 20260503173022 | 62 | 238 | 9.0 | 19.0 | 0.00 | 0.00 | 0.00 | 34 | 1010.7 |
| 20260503172509 | 63 | 206 | 10.0 | 20.0 | 0.00 | 0.00 | 0.00 | 37 | 1010.7 |
| 20260503172015 | 62 | 286 | 10.0 | 19.0 | 0.00 | 0.00 | 0.00 | 34 | 1010.7 |
| 20260503171526 | 62 | 271 | 10.0 | 18.0 | 0.00 | 0.00 | 0.00 | 35 | 1010.9 |
| 20260503171007 | 61 | 254 | 10.0 | 18.0 | 0.00 | 0.00 | 0.00 | 37 | 1011.0 |
| 20260503170505 | 60 | 253 | 9.0 | 18.0 | 0.00 | 0.00 | 0.00 | 35 | 1011.1 |